Location: Beaurecueil
(43.5122°N, 5.5450°E)
Time: 19:39:27
(UTC+00:00)

Terra - Pass Details

Date: 18 September 2020
Orbit: 701 x 703 km, 98.2° (Epoch: 28 October)

Event Time Altitude Azimuth Distance (km) Brightness Sun altitude
Exits shadow 20:19:12 12° 29° (NNE) 2,041 4.2 -27.8°
Drops below altitude 10° 20:19:47 10° 23° (NNE) 2,180 4.4 -27.9°
Sets 20:22:46 0° 3° (N) 3,104 5.5 -28.4°
